Regional Weather Roundup
Issued by NWS Upton, NY

Current Version | Previous Version | Text Only | Print | Product List | Glossary On
Versions: 1 2 3 4 5 6 7 8 9 10 11 12 13 14 15 16 17 18 19 20 21 22 23 24 25 26 27 28 29 30 31 32 33 34 35 36 37 38 39 40 41 42 43 44 45 46 47 48 49 50
000 ASUS41 KOKX 262307 RWROKX REGIONAL WEATHER ROUNDUP NATIONAL WEATHER SERVICE NEW YORK NY 700 PM EDT THU MAR 26 2015 NOTE: "FAIR" INDICATES FEW OR NO CLOUDS BELOW 12,000 FEET WITH NO SIGNIFICANT WEATHER AND/OR OBSTRUCTIONS TO VISIBILITY. NYZ071-072-176-178-NJZ106-104-270000- NEW YORK CITY METRO AREA CITY SKY/WX TMP DP RH WIND PRES REMARKS CENTRAL PARK MOCLDY 58 54 86 S7 29.61F LAGUARDIA APRT MOCLDY 56 52 86 S7 29.60F KENNEDY INTL FOG 52 50 93 S20 29.62F VSB 1/2 NEWARK/LIBERTY MOCLDY 55 52 89 CALM 29.59F FOG BRNX BOT. GARD N/A 52 52 100 SE5 29.63F TETERBORO MOCLDY 54 51 90 CALM 29.58F FOG $$ NYZ177-179-078>081-270000- LONG ISLAND NEW YORK CITY SKY/WX TMP DP RH WIND PRES REMARKS FARMINGDALE LGT RAIN 57 55 93 SW23G38 29.64F VSB 1 ISLIP FOG 51 50 96 SW21G28 29.64F VSB 3/4 SHIRLEY LGT RAIN 50 49 96 SW12G23 29.67F FOG WESTHAMPTON LGT RAIN 49 48 97 SW10G23 29.68F FOG MONTAUK POINT N/A 50 48 93 S17G30 29.67F $$ NYZ052-065-067-270000- HUDSON VALLEY CITY SKY/WX TMP DP RH WIND PRES REMARKS WHITE PLAINS FOG 54 52 94 CALM 29.59F VSB 1/4 NEWBURGH CLOUDY 46 46 100 NE5 29.62F FOG MONTGOMERY FOG 45 44 97 N3 29.61R VSB 1/4 POUGHKEEPSIE CLOUDY 46 44 93 N7 29.63S FOG ALBANY RAIN 39 37 92 N7 29.72R FOG WCI 34 $$ NJZ001-105-106-008-010-013-015-019>022-104-270000- NEW JERSEY CITY SKY/WX TMP DP RH WIND PRES REMARKS NEWARK/LIBERTY MOCLDY 55 52 89 CALM 29.59F FOG TETERBORO MOCLDY 54 51 90 CALM 29.58F FOG CALDWELL MOCLDY 52 49 89 CALM 29.59F FOG MORRISTOWN CLOUDY 52 52 100 CALM 29.59F FOG SOMERVILLE MOCLDY 53 51 93 MISG 29.57F FOG SUSSEX FOG 48 46 93 CALM 29.61S VSB<1/4 ANDOVER N/A 44 44 100 CALM 29.60S TRENTON CLOUDY 64 58 80 S18G24 29.58F MILLVILLE PTCLDY 59 57 93 VRB7 29.61F ATLANTIC CITY CLOUDY 56 54 93 S15 29.65F WRIGHTSTOWN CLOUDY 62 62 99 S13 29.59F TOMS RIVER CLOUDY 61 57 88 S17G25 29.62F BELMAR CLOUDY 61 55 82 S15 29.62F $$ PAZ047>061-062-071-270000- EASTERN PENNSYLVANIA CITY SKY/WX TMP DP RH WIND PRES REMARKS PHILADELPHIA MOCLDY 64 58 80 S16 29.60F ALLENTOWN CLOUDY 52 48 87 CALM 29.59R FOG SCRANTON LGT RAIN 43 38 82 NW8 29.69F $$ CTZ002-004>006-009-010-012-RIZ004-006-007-MAZ004-011-015-270000- SOUTHERN NEW ENGLAND IN CT CITY SKY/WX TMP DP RH WIND PRES REMARKS BRADLEY INTL FOG 46 44 93 N5 29.62F VSB 1/4 HARTFORD FOG 47 46 97 VRB6 29.62F VSB 3/4 DANBURY CLOUDY 48 45 89 CALM 29.62F FOG WTRBRY/OXFORD FOG 54 48 82 SW9 29.64F VSB 1/4 BRIDGEPORT FOG 50 49 96 SW9 29.63F VSB 1/4 MERIDEN LGT RAIN 54 52 93 S10 29.62F FOG NEW HAVEN FOG 49 48 97 SW9 29.64F VSB 3/4 CHESTER FOG 54 54 100 SW14G21 29.65F VSB 1 GROTON LGT RAIN 50 32 50 W10 29.66F WILLIMANTIC LGT RAIN 56 54 93 S14G26 29.62F IN RI CITY SKY/WX TMP DP RH WIND PRES REMARKS PROVIDENCE LGT RAIN 56 53 90 SW13G25 29.65F FOG BLOCK ISLAND CLOUDY 46 45 93 SW21 29.66F WESTERLY LGT RAIN 49 49 100 SW13G20 29.67F FOG IN MA CITY SKY/WX TMP DP RH WIND PRES REMARKS BOSTON LGT RAIN 49 48 97 N5 29.65S FOG WORCESTER FOG 45 44 97 W9 29.62F VSB<1/4 WESTFIELD FOG 43 41 93 N8 29.63F VSB 1/2 PROVINCETOWN CLOUDY 48 45 87 SW17 29.67S NANTUCKET LGT RAIN 46 44 93 S21G31 29.72F VSB 1/4 $$ ANZ330-335-338-340-345-350-353-355-270000- COASTAL MARINE OBSERVATIONS STATION/POSITION TIME SKY/WX TEMP WIND PRES VSBY WAVE AIR SEA DIR/SP/G HT/PER (UTC) (F) (DEG/KT/KT) (MB) (MI) (FT/S) NY HARB ENTRANCE 2250 46 38 190/ 23/ 27 1002.7 6/ 8 4S FIRE IS 2203 36 N/A 6/ 8 20S FIRE ISLAND 2150 39 1005.6 6/ 8 23SW MTP 2250 N/A 7/ 9 HUDSON CANYON NOT AVBL EXECUTION ROCKS NOT AVBL WESTERN LI SOUND NOT AVBL CENTRAL LI SOUND NOT AVBL EASTERN LI SOUND NOT AVBL ROBBINS REEF 2200 52 60/ 3/ 4 1002.2 $$ >>>>>>>>>>>>>>>>>>>>>>>>>>>> KEY <<<<<<<<<<<<<<<<<<<<<<<<<<< > < > SKY/WX - SKY CONDITION/PRESENT WEATHER < > TMP - TEMPERATURE IN FAHRENHEIT < > DP - DEWPOINT IN FAHRENHEIT < > RH - RELATIVE HUMIDITY IN PERCENT < > WIND - DIRECTION AND SPEED IN MPH < > PRES - MEAN SEA LEVEL PRESSURE IN INCHES OF HG < > WCI - WIND CHILL INDEX < > VSB - VISIBILITY IN MILES < > HX - HEAT INDEX < > TC - TEMPERATURE IN CELSIUS < > VRB - VARIABLE WIND DIRECTION < > < >>>>>>>>>>>>>>>>>>>>>>>>>>>> KEY <<<<<<<<<<<<<<<<<<<<<<<<<<<

USA.gov is the U.S. government's official web portal to all federal, state and local government web resources and services.